STARLINK-3311 (50849 NORAD) Tracking and Keplerian Element Data

This shows tracking and keplerian element data for the satellite.

Feedback or suggestion? Click here.




ElementValue
Catalog50849
NameSTARLINK-3311
Epoch Orbit375
Epoch Day22.91667824
Epoch Year2022
RAAN119.7426
Inclination53.2175
Eccentricity0.0001029
Argument of Perigee75.5314
Mean Anonmoly248.1991
Mean Motion15.75438376
Decay Rate-0.0082111
L11 50849U 22001AY 22022.91667824 -.00821110 00000+0 -58429-2 0 9996
L22 50849 53.2175 119.7426 0001029 75.5314 248.1991 15.75438376 3756

Live tracking and technical data element details for STARLINK-3311 (NORAD 50849). STARLINK-3311 can be tracked NOW for your location showing map with azimuth and elevation plus other details from your city location.

Track the satellite on the map from your city or location and see movement details for azimuth, elevation, latitude, longitude, range, height, and movement on the map or in text.







IsCatalogInMostPopularTable: catalog: 50849, numindb: 5
Update: records affected: 1



GetName: 50849 STARLINK-3311

Hit Count: updated at: Mon, 24 Jan 2022 00:57:06 GMT